TimeEST,TemperatureF,Dew PointF,Humidity,Sea Level PressureIn,VisibilityMPH,Wind Direction,Wind SpeedMPH,Gust SpeedMPH,PrecipitationIn,Events,Conditions,WindDirDegrees,DateUTC
1:56 AM,30.0,25.0,82,30.23,9.0,Calm,Calm,-,N/A,,Partly Cloudy,0,2012-12-15 06:56:00
2:56 AM,30.9,26.1,82,30.23,8.0,Calm,Calm,-,N/A,,Partly Cloudy,0,2012-12-15 07:56:00
3:56 AM,28.9,25.0,85,30.24,7.0,Calm,Calm,-,N/A,,Partly Cloudy,0,2012-12-15 08:56:00
4:56 AM,27.0,23.0,85,30.24,6.0,NNE,4.6,-,N/A,,Partly Cloudy,20,2012-12-15 09:56:00
5:56 AM,28.9,25.0,85,30.25,7.0,Calm,Calm,-,N/A,,Scattered Clouds,0,2012-12-15 10:56:00
6:56 AM,28.0,24.1,85,30.27,6.0,Calm,Calm,-,N/A,,Mostly Cloudy,0,2012-12-15 11:56:00
7:56 AM,28.9,26.1,89,30.28,5.0,NNW,4.6,-,N/A,,Mostly Cloudy,340,2012-12-15 12:56:00
9:56 AM,45.0,28.0,52,30.31,10.0,North,9.2,-,N/A,,Mostly Cloudy,10,2012-12-15 14:56:00
10:56 AM,46.0,27.0,47,30.29,10.0,NE,5.8,-,N/A,,Mostly Cloudy,40,2012-12-15 15:56:00
11:56 AM,46.0,26.1,46,30.27,10.0,NNE,8.1,-,N/A,,Mostly Cloudy,30,2012-12-15 16:56:00
12:56 PM,46.0,26.1,46,30.25,10.0,Calm,Calm,-,N/A,,Mostly Cloudy,0,2012-12-15 17:56:00
1:56 PM,46.9,26.1,44,30.24,10.0,Calm,Calm,-,N/A,,Mostly Cloudy,0,2012-12-15 18:56:00
2:56 PM,46.9,27.0,46,30.24,10.0,Calm,Calm,-,N/A,,Mostly Cloudy,0,2012-12-15 19:56:00
3:56 PM,44.1,28.0,53,30.25,10.0,SSE,5.8,-,N/A,,Mostly Cloudy,150,2012-12-15 20:56:00
4:56 PM,39.9,28.0,63,30.25,10.0,Calm,Calm,-,N/A,,Mostly Cloudy,0,2012-12-15 21:56:00
5:56 PM,35.1,26.1,70,30.25,10.0,ENE,3.5,-,N/A,,Mostly Cloudy,70,2012-12-15 22:56:00
6:56 PM,36.0,27.0,70,30.25,10.0,Calm,Calm,-,N/A,,Mostly Cloudy,0,2012-12-15 23:56:00
7:56 PM,37.9,28.9,70,30.26,10.0,Calm,Calm,-,N/A,,Overcast,0,2012-12-16 00:56:00
8:56 PM,39.0,30.0,70,30.25,10.0,East,3.5,-,N/A,,Overcast,80,2012-12-16 01:56:00
9:56 PM,39.0,30.9,73,30.24,10.0,ENE,6.9,-,N/A,,Overcast,60,2012-12-16 02:56:00
10:56 PM,39.9,32.0,73,30.25,10.0,East,4.6,-,N/A,,Overcast,90,2012-12-16 03:56:00
11:56 PM,39.9,33.1,77,30.22,10.0,ENE,5.8,-,N/A,,Overcast,70,2012-12-16 04:56:00